TimePDT,TemperatureF,Dew PointF,Humidity,Sea Level PressureIn,VisibilityMPH,Wind Direction,Wind SpeedMPH,Gust SpeedMPH,PrecipitationIn,Events,Conditions,WindDirDegrees,DateUTC
12:53 AM,48.9,44.1,83,30.09,10.0,SW,6.9,-,0.01,,Overcast,230,2013-10-02 07:53:00
1:53 AM,50.0,44.1,80,30.09,10.0,WNW,6.9,-,N/A,,Overcast,300,2013-10-02 08:53:00
2:53 AM,48.9,45.0,86,30.09,10.0,WSW,3.5,-,0.00,,Overcast,250,2013-10-02 09:53:00
3:53 AM,46.9,46.0,97,30.08,10.0,WSW,5.8,-,0.00,Rain,Light Rain,240,2013-10-02 10:53:00
4:53 AM,48.0,45.0,89,30.07,10.0,SW,4.6,-,0.01,Rain,Light Rain,220,2013-10-02 11:53:00
5:53 AM,46.9,45.0,93,30.06,10.0,WSW,5.8,-,0.00,,Overcast,240,2013-10-02 12:53:00
6:20 AM,46.9,45.0,93,30.05,10.0,Calm,Calm,-,N/A,,Overcast,0,2013-10-02 13:20:00
6:53 AM,48.0,44.1,86,30.05,10.0,West,5.8,-,N/A,,Overcast,260,2013-10-02 13:53:00
7:19 AM,48.0,44.1,86,30.05,10.0,West,6.9,-,N/A,,Overcast,260,2013-10-02 14:19:00
7:53 AM,48.0,44.1,86,30.05,10.0,West,8.1,-,0.00,Rain,Light Rain,280,2013-10-02 14:53:00
8:22 AM,48.9,45.0,86,30.05,10.0,NW,4.6,-,0.00,Rain,Light Rain,310,2013-10-02 15:22:00
8:38 AM,48.9,46.0,90,30.05,10.0,NNW,3.5,-,0.00,,Overcast,340,2013-10-02 15:38:00
8:51 AM,48.2,46.4,93,30.05,10.0,WNW,3.5,-,0.00,,Overcast,290,2013-10-02 15:51:00
8:53 AM,48.9,46.0,90,30.05,10.0,WNW,3.5,-,0.00,,Overcast,290,2013-10-02 15:53:00
9:11 AM,48.9,46.0,90,30.05,10.0,Calm,Calm,-,N/A,,Overcast,0,2013-10-02 16:11:00
9:28 AM,50.0,46.9,89,30.05,10.0,Calm,Calm,-,N/A,,Overcast,0,2013-10-02 16:28:00
9:37 AM,50.0,46.0,86,30.05,10.0,North,3.5,-,N/A,,Overcast,360,2013-10-02 16:37:00
9:51 AM,50.0,46.4,87,30.05,10.0,Calm,Calm,-,N/A,,Overcast,0,2013-10-02 16:51:00
9:53 AM,50.0,46.9,89,30.06,10.0,Calm,Calm,-,N/A,,Overcast,0,2013-10-02 16:53:00
10:30 AM,51.1,45.0,80,30.06,10.0,West,3.5,-,N/A,,Overcast,280,2013-10-02 17:30:00
10:53 AM,51.1,44.1,77,30.06,10.0,Calm,Calm,-,N/A,,Overcast,0,2013-10-02 17:53:00
11:53 AM,53.1,46.9,80,30.06,10.0,Calm,Calm,-,N/A,,Overcast,0,2013-10-02 18:53:00
12:27 PM,53.1,46.9,80,30.05,10.0,Variable,4.6,-,N/A,,Overcast,0,2013-10-02 19:27:00
12:39 PM,53.1,46.0,77,30.05,10.0,NNE,4.6,-,N/A,,Overcast,30,2013-10-02 19:39:00
12:53 PM,53.1,46.9,80,30.06,10.0,NNE,6.9,-,N/A,,Mostly Cloudy,30,2013-10-02 19:53:00
1:05 PM,52.0,46.0,80,30.05,10.0,NNE,5.8,-,N/A,,Mostly Cloudy,20,2013-10-02 20:05:00
1:53 PM,51.1,46.9,86,30.06,10.0,North,3.5,-,0.04,Rain,Light Rain,10,2013-10-02 20:53:00
2:15 PM,51.1,46.0,83,30.06,10.0,Calm,Calm,-,0.00,Rain,Light Rain,0,2013-10-02 21:15:00
2:53 PM,51.1,46.0,83,30.07,10.0,Calm,Calm,-,0.03,Rain,Light Rain,0,2013-10-02 21:53:00
3:53 PM,51.1,46.9,86,30.07,10.0,Calm,Calm,-,0.08,Rain,Light Rain,0,2013-10-02 22:53:00
4:53 PM,52.0,46.9,83,30.08,10.0,Calm,Calm,-,0.00,,Mostly Cloudy,0,2013-10-02 23:53:00
5:53 PM,51.1,48.0,89,30.09,10.0,Calm,Calm,-,N/A,,Clear,0,2013-10-03 00:53:00
6:53 PM,48.0,46.0,93,30.11,10.0,SW,5.8,-,N/A,,Scattered Clouds,230,2013-10-03 01:53:00
7:53 PM,46.0,44.1,93,30.12,10.0,SW,5.8,-,N/A,,Scattered Clouds,230,2013-10-03 02:53:00
8:53 PM,45.0,43.0,93,30.14,10.0,SW,4.6,-,N/A,,Partly Cloudy,220,2013-10-03 03:53:00
9:53 PM,46.0,44.1,93,30.17,10.0,Calm,Calm,-,N/A,,Overcast,0,2013-10-03 04:53:00
10:53 PM,46.9,45.0,93,30.18,10.0,SW,4.6,-,0.00,,Overcast,230,2013-10-03 05:53:00
11:53 PM,46.9,45.0,93,30.20,10.0,SW,4.6,-,N/A,,Overcast,230,2013-10-03 06:53:00